�_�ʐ�͌���@�\�w���ɂ��Y���u�C�̈ړ���,,,,,,,,
�@,Time,Lat.,,Long.,,Direction,Speed,
Date(yy/mm/dd),(hh:mm),(deg),(min),(deg),(min),(deg),(m/s),(knots)
2004/5/26,9:20,36,45.966,137,13.53,,,
2004/5/26,9:25,36,46.056,137,13.59,35.4,0.68,1.33
2004/5/26,9:30,36,46.098,137,13.638,51.1,0.41,0.8
2004/5/26,9:35,36,46.128,137,13.68,56.9,0.34,0.66
2004/5/26,9:40,36,46.164,137,13.734,58.2,0.42,0.82
2004/5/26,9:45,36,46.188,137,13.806,72.5,0.49,0.96
2004/5/26,9:50,36,46.194,137,13.884,85.8,0.51,0.99
2004/5/26,9:55,36,46.206,137,13.956,76.9,0.46,0.89
2004/5/26,10:00,36,46.188,137,14.028,100.5,0.45,0.88
2004/5/26,10:05,36,46.194,137,14.1,81.5,0.45,0.87
2004/5/26,10:10,36,46.194,137,14.166,85.9,0.41,0.79
2004/5/26,10:15,36,46.2,137,14.238,82.6,0.47,0.92
2004/5/26,10:20,36,46.206,137,14.286,79.3,0.33,0.63
2004/5/26,10:25,36,46.212,137,14.334,79.3,0.33,0.63
2004/5/26,10:30,36,46.242,137,14.388,59.7,0.41,0.8
2004/5/26,10:35,36,46.242,137,14.43,82.7,0.26,0.51
2004/5/26,10:40,36,46.254,137,14.46,59.9,0.21,0.42
2004/5/26,10:45,36,46.266,137,14.478,44.7,0.16,0.31
2004/5/26,10:50,36,46.284,137,14.514,56.1,0.27,0.52
2004/5/26,10:55,36,46.296,137,14.538,52.9,0.19,0.36
2004/5/26,11:00,36,46.326,137,14.574,44.9,0.32,0.61
2004/5/26,11:05,36,46.338,137,14.598,53.1,0.19,0.36
2004/5/26,11:10,36,46.368,137,14.634,45,0.31,0.61
2004/5/26,11:15,36,46.392,137,14.664,45,0.26,0.51
2004/5/26,11:25,36,46.422,137,14.718,52.1,0.21,0.41


�A,Time,Lat.,,Long.,,Direction,Speed,
Date(yy/mm/dd),(hh:mm),(deg),(min),(deg),(min),(deg),(m/s),(knots)
2004/5/26,11:45,36,46.068,137,13.116,,,
2004/5/26,11:50,36,46.056,137,13.128,116.4,0.08,0.16
2004/5/26,11:55,36,46.074,137,13.14,26.5,0.17,0.32
2004/5/26,12:00,36,46.092,137,13.146,14,0.15,0.3
2004/5/26,12:05,36,46.116,137,13.17,38.6,0.24,0.46
2004/5/26,12:20,36,46.152,137,13.2,29,0.13,0.25
2004/5/26,12:25,36,46.158,137,13.212,59.2,0.11,0.21
2004/5/26,12:30,36,46.17,137,13.224,45,0.13,0.25
2004/5/26,12:35,36,46.188,137,13.248,52.2,0.21,0.41
2004/5/26,12:40,36,46.2,137,13.242,348,0.09,0.18
2004/5/26,12:45,36,46.206,137,13.254,59.2,0.11,0.21
2004/5/26,12:50,36,46.224,137,13.254,7.8,0.13,0.25
2004/5/26,12:55,36,46.242,137,13.248,351.4,0.13,0.25


�B,Time,Lat.,,Long.,,Direction,Speed,
Date(yy/mm/dd),(hh:mm),(deg),(min),(deg),(min),(deg),(m/s),(knots)
2004/5/26,13:15,36,46.128,137,13.296,,,
2004/5/26,13:20,36,46.158,137,13.302,15.1,0.21,0.41
2004/5/26,13:25,36,46.224,137,13.314,12.8,0.44,0.86
2004/5/26,13:30,36,46.242,137,13.308,354.2,0.14,0.26
2004/5/26,13:35,36,46.29,137,13.308,7,0.31,0.61
2004/5/26,13:40,36,46.32,137,13.308,10.8,0.2,0.4
2004/5/26,13:50,36,46.392,137,13.296,354.7,0.22,0.43
2004/5/26,13:55,36,46.416,137,13.284,333.4,0.17,0.32
2004/5/26,14:00,36,46.44,137,13.278,346,0.15,0.3
2004/5/26,14:05,36,46.47,137,13.254,321.3,0.24,0.46
2004/5/26,14:10,36,46.494,137,13.236,323.1,0.19,0.36
2004/5/26,14:15,36,46.524,137,13.218,329,0.22,0.42
2004/5/26,14:20,36,46.548,137,13.206,333.4,0.17,0.32
2004/5/26,14:25,36,46.578,137,13.182,321.3,0.24,0.46


�C,Time,Lat.,,Long.,,Direction,Speed,
Date(yy/mm/dd),(hh:mm),(deg),(min),(deg),(min),(deg),(m/s),(knots)
2004/5/26,9:20,36,46.002,137,13.668,,,
2004/5/26,9:25,36,46.008,137,13.698,80,0.21,0.41
2004/5/26,9:30,36,46.014,137,13.722,77.9,0.18,0.34
2004/5/26,9:35,36,46.014,137,13.728,90,0.06,0.12
2004/5/26,9:40,36,46.038,137,13.746,42.5,0.2,0.39
2004/5/26,9:45,36,46.032,137,13.764,105.2,0.14,0.27
2004/5/26,9:50,36,46.038,137,13.776,69.5,0.11,0.21


�D,Time,Lat.,,Long.,,Direction,Speed,
Date(yy/mm/dd),(hh:mm),(deg),(min),(deg),(min),(deg),(m/s),(knots)
2004/5/26,10:00,36,46.086,137,13.464,,,
2004/5/26,10:05,36,46.146,137,13.488,20.4,0.43,0.83
2004/5/26,10:10,36,46.206,137,13.548,42.8,0.54,1.06
2004/5/26,10:15,36,46.272,137,13.62,47.4,0.64,1.24
2004/5/26,10:20,36,46.314,137,13.668,48.5,0.43,0.83
2004/5/26,10:25,36,46.35,137,13.764,68.3,0.66,1.29
2004/5/26,10:30,36,46.374,137,13.842,71.2,0.53,1.04
2004/5/26,10:35,36,46.398,137,13.914,67.8,0.48,0.93
2004/5/26,10:40,36,46.41,137,13.998,78.3,0.53,1.03
2004/5/26,10:45,36,46.428,137,14.082,73.9,0.54,1.05
2004/5/26,10:50,36,46.44,137,14.178,79.3,0.6,1.17
2004/5/26,10:55,36,46.446,137,14.244,79.5,0.41,0.81
2004/5/26,11:00,36,46.452,137,14.322,81.1,0.49,0.95
2004/5/26,11:05,36,46.47,137,14.388,70,0.43,0.84
2004/5/26,11:10,36,46.482,137,14.466,77,0.49,0.96
2004/5/26,11:15,36,46.506,137,14.538,67.4,0.48,0.94
2004/5/26,11:20,36,46.536,137,14.592,56.3,0.4,0.78


�E,Time,Lat.,,Long.,,Direction,Speed,
Date(yy/mm/dd),(hh:mm),(deg),(min),(deg),(min),(deg),(m/s),(knots)
2004/5/26,11:40,36,46.05,137,13.428,,,
2004/5/26,11:45,36,46.134,137,13.482,31,0.65,1.26
2004/5/26,11:50,36,46.194,137,13.536,39.3,0.53,1.02
2004/5/26,11:55,36,46.248,137,13.596,45,0.52,1.02
2004/5/26,12:00,36,46.278,137,13.668,63.4,0.5,0.97
2004/5/26,12:05,36,46.308,137,13.74,63.4,0.5,0.97
2004/5/26,12:10,36,46.338,137,13.824,66.8,0.56,1.1
2004/5/26,12:15,36,46.356,137,13.896,71.5,0.47,0.91
2004/5/26,12:20,36,46.374,137,13.986,75,0.58,1.12
2004/5/26,12:25,36,46.398,137,14.064,71.6,0.53,1.02
2004/5/26,12:30,36,46.398,137,14.13,87.6,0.43,0.83
2004/5/26,12:35,36,46.41,137,14.184,75.4,0.36,0.71
2004/5/26,12:40,36,46.416,137,14.256,83.3,0.47,0.9
2004/5/26,12:45,36,46.422,137,14.322,82.7,0.43,0.83
2004/5/26,12:50,36,46.422,137,14.388,87.6,0.43,0.83
2004/5/26,12:55,36,46.428,137,14.454,82.7,0.43,0.83


�F,Time,Lat.,,Long.,,Direction,Speed,
Date(yy/mm/dd),(hh:mm),(deg),(min),(deg),(min),(deg),(m/s),(knots)
2004/5/26,13:10,36,46.05,137,12.846,,,
2004/5/26,13:15,36,46.032,137,12.846,169.3,0.1,0.18
2004/5/26,13:20,36,46.026,137,12.834,251,0.06,0.12
2004/5/26,13:25,36,46.026,137,12.804,278.2,0.16,0.32
2004/5/26,13:30,36,46.032,137,12.78,295.9,0.14,0.27
2004/5/26,13:35,36,46.02,137,12.786,127.7,0.1,0.19
2004/5/26,13:40,36,46.02,137,12.756,276.2,0.15,0.29
2004/5/26,13:45,36,46.026,137,12.75,331.1,0.04,0.08
2004/5/26,13:50,36,46.02,137,12.744,208.9,0.04,0.08
2004/5/26,13:55,36,46.038,137,12.726,315,0.16,0.31
2004/5/26,14:00,36,46.02,137,12.714,213.7,0.13,0.26
2004/5/26,14:05,36,46.014,137,12.708,225,0.05,0.1
2004/5/26,14:10,36,46.02,137,12.702,315,0.05,0.1
2004/5/26,14:15,36,46.014,137,12.69,243.4,0.08,0.16
2004/5/26,14:20,36,46.032,137,12.69,0,0.11,0.22
2004/5/26,14:25,36,46.02,137,12.684,206.6,0.08,0.16
2004/5/26,14:30,36,46.02,137,12.672,270,0.07,0.14
2004/5/26,14:35,36,46.026,137,12.666,315,0.05,0.1
